sat.trackr.live / text

‹ back to catalog

STARLINK-33974

NORAD 63954 · 2025-099C

PAYLOAD ACTIVE UNKNOWN

§ Identity

Operator
Country
US
Launch date
2025-05-13
Launch site
AFETR
Launch vehicle
Mass (kg)
RCS (m²)

Purposes: comms

External: N2YO · Heavens-Above · Gunter

§ Orbital elements

Epoch: 2026-09-20T10:08:35.971584Z

Period
94.27 min
Inclination
42.9994°
Eccentricity
0.0001551
Mean motion
15.27587894 rev/d
Perigee alt
482.0 km
Apogee alt
484.1 km
Semi-major
6,861.2 km
B*
3.6371e-4
RAAN
156.8705°
Arg perigee
268.8752°
Mean anomaly
91.1922°
Rev number
7,711

§ Raw data

STARLINK-339741 63954U 25099C   26263.42263856  .00009762  00000+0  36371-3 0  99932 63954  42.9994 156.8705 0001551 268.8752  91.1922 15.27587894 77114

JSON: /api/v1/satellites/63954 · /tle

For live sub-satellite position, see the globe view (requires WebGL).

§ Visibility from observer

Set your observer location to see the next 7 days of passes ≥ 10°. The values pass through the URL so the page stays shareable.

No JS? Fill the form by hand. The geolocation button needs JavaScript.